STARLINK-4690, 53604

Orbit data source: Space-Track

STARLINK-4690, 53604 is a payload satellite owned by SpaceX/Seattle (US) in LEO that was launched on Sun, 28 Aug 2022 UTC via an FALCON 9 launch vehicle from the Air Force Eastern Test Range (AFETR). Payload-class satellites include a variety of spacecraft equipped with specific instruments for various scientific and technological missions. These include communications satellites like Starlink; space stations such as the ISS; scientific satellites like the Hubble; Earth observation satellites from companies like Planet Labs, Umbra, and HawkEye 360; GPS; miniature CubeSats for education and research; and military/defense satellites.

Loading next visibility...
Identifier
53604, 2022-104S
Orbit
LEO
Country
Flag of USUS
Related business
Manufacturer
SpaceX/Seattle
Mission
Operational Commercial Communications
Bus & Motor
STARLINK, Unknown motor
Mass
300 kg wet, ~290 kg dry
Launch date (UTC)
2022-08-28 (3 years ago)
Launch vehicle
FALCON 9
Launch site
Air Force Eastern Test Range (AFETR)
Object type
Payload
Rocket body
Debris
Shape & HBR
Box + 1 Pan, 10.1 m
Radar Cross Section
13.562 m², Large (>1 m²)

Expand to show TLE details & history
Last TLE update: 1 day ago

TLE from 1 day ago
0 STARLINK-4690
1 53604U 22104S   25286.41515421  .00000284  00000-0  35945-4 0  9997
2 53604  53.2200 180.1212 0001842  86.2032 273.9171 15.08838396173454
Epoch: 2025-10-13T09:57Z
TLE epoch observation values (Epoch: 2025-10-13T09:57:49.323Z)
Latitude
-0.00002°
Longitude
8.44741°
Altitude
540.559 km
Speed
7.593 km/s
True Right ascension
12h 00m 29s
True Declination
0° 00' 00"
Sunlit
Object was in daylight at epoch
Visualization orbit readout
Latitude
Unknown
Longitude
Unknown
Altitude
Unknown
Speed
Unknown
Apparent Right ascension
Unknown
Apparent Declination
Unknown
Sunlit
N/A
Visualization observer readout
Local Sidereal Time
09:57:36
Azimuth
Unknown
Elevation
Unknown
Doppler factor
Unknown
Orbital elements
Apogee altitude
541.267 km
Perigee altitude
538.718 km
Semi-major axis
6,918.13 km
Eccentricity
0.00018
Inclination
53.22°
RAAN
180.1212°
Arg. of periapsis
86.2032°
True anomaly
273.89604°
Mean anomaly
273.9171°
Eccentric anomaly
273.90657°
Mean motion
3.7719 °/min
Orbital period
95.44 mins
BSTAR
0.000035945
Loading maneuver chart data...
Computing Atmospheric mass density...
Loading historical data...
Loading historical data...
Loading historical data...
Loading historical data...
Loading historical data...
Loading historical data...
Loading historical data...

Documentation

Showing up to 5 results
|